Orbital Elements at Epoch 2459000.5 (2020-May-31.0) TDB
Reference: JPL 23 (heliocentric ecliptic J2000)
Element | Value | Uncertainty (1-sigma) | Units |
e | .2381809147253812 | 3.4448e-08 | |
a | 2.389187176643626 | 9.2401e-09 | au |
q | 1.820128389460496 | 8.0875e-08 | au |
i | 4.716653426590465 | 3.7022e-06 | deg |
node | 34.69321319112117 | 4.9114e-05 | deg |
peri | 256.0186757341353 | 5.0123e-05 | deg |
M | 356.0707249316472 | 7.9641e-06 | deg |
tp | 2459015.222569779031 (2020-Jun-14.72256978) | 2.982e-05 | TDB |
period | 1348.881162110346 3.69 | 7.8252e-06 2.142e-08 | d yr |
n | .2668878549958947 | 1.5483e-09 | deg/d |
Q | 2.958245963826756 | 1.1441e-08 | au |
|
| | Orbit Determination Parameters
Additional Information
|